Dewpoint
-6 -9 -8 -6 -4 -2 -1 -0 1 1 1 1 -1 -4 -7 -9 -6 -0 3 2 6 6 4 6 6 5 5 5 7 8 12 9 8 8 9 10 10 12 11 11 12 12 11 12 13
-4 -6 -9 -8 -5 -3 -2 -1 -0 0 1 1 -1 -5 -9 -12 -10 -1 2 3 6 6 5 3 3 3 3 4 4 6 8 7 6 6 8 8 10 11 11 11 12 12 12 12 12
-2 -3 -5 -9 -8 -5 -3 -2 -1 -1 -1 -1 -2 -5 -7 -10 -1 1 1 4 6 5 4 3 3 3 3 2 3 5 7 6 7 8 8 9 9 9 10 13 10 12 12 12 12
-2 -2 -3 -5 -8 -8 -6 -4 -3 -3 -4 -4 -4 -5 -7 -8 2 1 2 4 6 -0 6 3 2 3 3 3 2 6 5 6 8 9 9 9 9 9 12 10 10 12 12 12 12
-2 -2 -3 -3 -4 -7 -9 -7 -5 -5 -6 -6 -6 -6 -8 -3 -2 -1 0 -1 -1 3 3 2 1 3 3 3 2 4 6 7 8 9 9 10 9 9 11 12 11 12 12 11 11
-2 -3 -3 -3 -3 -4 -6 -8 -7 -6 -7 -8 -8 -7 -1 -6 -6 -4 -3 -3 -3 -0 1 0 1 1 2 2 4 4 6 7 8 9 10 10 11 9 11 11 11 11 11 11 11
-3 -3 -3 -3 -3 -4 -4 -6 -8 -8 -8 -8 -9 -9 -3 -8 -9 -4 -3 -3 -2 -3 -1 -1 -1 1 1 2 3 4 6 7 7 8 9 9 11 8 10 10 10 10 11 11 11
-3 -3 -4 -4 -4 -4 -4 -5 -7 -7 -8 -8 -9 -8 -3 -10 -10 -7 -4 -2 -3 -2 -1 -2 -0 0 2 4 2 4 5 16 8 8 10 14 13 10 11 11 10 10 10 11 11
-3 -4 -4 -4 -4 -4 -4 -5 -6 -7 -7 -8 -5 -1 -7 -10 -12 -5 -4 -1 -0 -1 0 -1 0 2 2 3 5 5 16 11 8 7 7 12 12 10 10 11 10 10 10 10 11
-4 -5 -5 -4 -4 -3 -4 -5 -6 -7 -7 -8 -4 -2 -6 -13 -13 -6 -4 -3 -2 -0 0 2 1 2 1 4 11 9 12 6 5 8 8 8 8 10 10 10 10 10 10 10 11
-6 -6 -6 -4 -4 -3 -4 -4 -3 -1 0 -7 -8 -11 -12 -12 -11 -10 -4 -2 -2 -1 1 2 2 2 6 9 6 7 7 4 2 3 5 7 6 10 10 9 9 10 10 10 10
-8 -8 -7 -4 -4 -2 -4 -1 -2 -2 -5 -6 -9 -10 -10 -11 -12 -11 -5 -2 -1 1 1 2 2 1 4 2 1 1 2 4 4 2 3 4 4 4 10 10 9 9 9 9 10
-10 -9 -8 -4 -3 -2 -2 -2 -1 -1 -5 -10 -9 -12 -11 -11 -14 -13 -7 -2 -0 2 2 3 -1 2 3 2 2 1 4 8 7 3 -0 3 7 8 6 9 9 9 8 8 8
-9 -10 -8 -4 -0 2 -1 -2 -2 -0 -2 -8 -10 -12 -11 -11 -12 -14 -11 -3 -1 0 2 0 0 3 2 2 1 4 3 3 2 3 12 7 16 11 7 9 9 9 9 8 8
-7 -10 -7 -4 3 0 2 -0 -0 -1 -0 -8 -10 -7 -12 -11 -13 -13 -12 -8 -2 -1 0 2 2 4 3 2 1 3 1 1 2 2 6 7 6 7 2 7 9 9 9 9 8
-6 -9 -6 -3 -2 1 2 1 -2 -3 -4 -4 -7 -10 -11 -13 -14 -13 -12 -11 -7 -3 -2 -0 -1 2 1 1 1 -1 -1 -1 -0 1 5 5 4 5 8 2 6 6 8 8 9
-7 -8 -5 -3 3 2 3 1 -2 -2 -6 -4 -8 -10 -12 -12 -13 -11 -12 -12 -8 -1 0 -1 0 2 0 3 2 0 1 3 6 4 7 1 0 6 4 5 6 7 7 8 9
-5 -5 -1 -1 3 2 3 -1 2 -10 -7 -6 -8 -11 -12 -15 -13 -13 -12 -12 -11 -7 -4 -0 1 3 -2 1 1 1 -0 3 10 9 13 7 2 6 4 7 8 9 8 9 9
-0 2 4 3 -1 3 1 0 -3 -8 -4 -6 -8 -9 -10 -14 -13 -12 -12 -12 -12 -10 -5 -3 -1 -3 -2 -2 -1 2 4 1 7 10 8 5 3 1 5 8 9 10 10 11 10
4 5 4 4 -0 3 2 1 -4 -6 -4 -7 -6 -10 -9 -11 -12 -11 -10 -12 -13 -13 -11 -7 -2 -4 -3 -3 -3 -2 1 2 -0 6 7 4 7 5 6 9 10 10 10 12 14
4 4 4 3 2 2 2 -2 -4 -7 -5 -6 -7 -10 -11 -11 -12 -10 -10 -11 -12 -14 -10 -7 -2 -1 -2 -0 -1 -2 0 -2 2 2 7 7 5 5 7 9 10 10 10 12 13
6 3 3 2 0 -1 -0 -3 -3 -7 -7 -7 -7 -8 -10 -12 -12 -11 -9 -10 -13 -13 -8 -6 -3 0 -1 -5 -4 -3 -2 -4 -2 1 -2 -0 5 5 7 8 10 11 11 12 13
7 3 2 1 1 -2 -3 -3 -3 -6 -6 -6 -7 -9 -10 -9 -8 -10 -9 -11 -10 -11 -6 -5 -3 -1 -2 -4 -2 0 1 -3 -4 -5 0 7 8 3 8 11 12 12 13 14 14
7 2 1 0 -1 -1 -2 -2 -3 -6 -6 -6 -6 -7 -6 -6 -5 -1 -7 -10 -9 -11 -7 -5 -4 -2 -0 -0 -3 -1 -3 -2 -5 -3 -3 10 11 8 10 12 12 13 13 14 15
7 5 3 -0 -2 -3 -4 -2 -2 -3 -4 -5 -3 -3 -4 -3 -3 -3 -3 -7 -9 -8 -6 -5 -0 -3 -4 -3 -3 -1 -2 -3 -3 -3 -0 7 8 10 11 11 12 12 13 14 14
7 8 7 2 0 -2 -0 0 1 -1 -3 -4 -2 -4 -4 0 1 -2 -4 -4 -5 -8 -7 -7 -0 -2 -1 -4 -4 -4 -6 -5 -3 -3 -2 -1 -1 1 8 10 11 12 12 12 13
4 6 8 6 2 2 1 1 2 2 1 -2 -2 -2 3 1 1 2 1 -3 -5 -2 -3 -6 -7 -2 1 -3 -4 -2 -5 -5 -4 -2 -1 1 6 4 8 10 10 10 11 13 13
Wind_Speed
4 7 8 8 8 8 7 7 7 8 9 11 12 13 15 15 13 10 9 3 6 4 4 4 6 6 5 4 5 3 3 8 12 12 8 8 10 7 7 10 9 3 15 25 28
4 5 8 9 10 10 10 9 9 9 9 11 11 11 12 13 11 12 9 10 9 5 5 8 10 6 12 4 1 7 2 12 12 15 10 4 10 8 8 9 11 9 20 26 27
5 5 6 9 11 12 12 11 10 10 10 10 10 9 9 9 10 4 7 9 8 6 9 8 10 7 6 6 4 2 8 8 14 11 9 8 8 6 12 5 13 15 23 25 26
7 6 6 7 9 12 13 13 12 11 11 10 9 8 7 6 5 4 7 8 7 5 8 8 10 12 5 9 7 6 8 9 8 8 8 9 6 4 11 2 13 16 21 24 25
8 7 7 7 8 10 13 13 13 12 11 10 8 7 6 9 11 6 9 4 3 4 8 6 11 6 7 4 10 1 10 6 7 7 10 8 6 6 13 6 14 17 18 21 22
9 9 8 7 8 8 11 13 13 12 11 10 8 7 6 15 5 5 5 5 6 6 8 7 6 7 11 2 7 4 7 9 9 9 7 10 5 8 11 13 16 16 17 18 20
10 9 9 9 8 8 9 10 12 11 11 9 8 7 10 16 5 8 8 8 7 6 8 3 6 11 7 6 2 10 11 8 8 9 15 26 5 9 12 14 16 17 16 18 19
10 10 9 9 9 9 8 8 10 10 10 8 7 6 12 4 13 13 11 11 11 9 9 8 7 11 12 10 9 10 10 14 3 5 26 27 13 11 14 15 15 17 17 17 17
10 10 10 9 9 9 8 7 8 8 8 6 4 6 14 8 12 13 13 13 12 10 9 9 9 16 9 13 9 5 6 19 12 7 2 13 19 14 14 15 15 16 18 18 16
10 10 10 9 9 8 6 5 5 7 7 5 8 8 13 12 12 13 14 13 11 13 12 13 16 14 13 5 1 11 19 5 3 6 3 5 8 14 14 15 15 16 18 20 19
10 10 10 10 9 7 4 2 4 7 15 17 5 15 3 7 9 16 16 16 14 14 15 19 16 15 11 11 13 15 25 15 8 11 3 7 4 17 17 15 16 18 20 21 20
11 10 10 10 9 7 7 6 6 5 9 21 19 14 6 5 9 17 19 21 19 16 20 17 16 7 13 10 10 9 5 10 14 4 5 5 5 7 17 17 18 17 18 20 20
11 10 9 10 10 7 8 8 5 5 9 15 19 22 16 14 15 21 22 25 19 20 23 21 13 16 7 8 11 11 8 11 16 12 8 10 11 13 15 19 17 18 18 19 20
13 11 8 7 3 3 6 8 5 4 6 14 13 13 16 15 19 16 23 26 22 20 24 17 9 12 11 12 13 4 19 10 5 3 5 14 5 18 14 16 16 20 21 21 20
14 11 7 6 5 4 3 3 4 5 6 12 12 7 17 21 10 21 17 28 23 21 17 22 14 15 11 18 8 12 13 10 12 11 11 3 2 13 10 18 18 19 23 23 22
16 12 8 7 10 8 4 3 4 7 5 9 10 12 16 25 18 17 19 23 21 19 21 22 15 19 16 19 14 7 10 13 13 13 4 11 16 17 5 4 6 6 19 24 23
16 11 9 9 3 7 6 7 7 11 6 9 11 16 19 18 20 13 18 21 19 19 20 20 18 24 13 11 16 11 16 10 6 10 5 7 9 7 4 8 7 5 6 17 22
14 10 9 12 10 10 7 10 10 4 5 5 3 13 16 19 20 16 18 18 24 23 15 17 18 25 16 17 11 11 15 7 1 5 2 21 4 12 13 13 9 7 6 6 14
8 3 5 7 14 11 13 11 13 5 2 5 10 10 14 17 15 15 19 18 21 23 21 16 18 19 20 16 19 14 16 15 14 14 15 10 5 6 13 12 11 11 9 6 6
2 5 5 8 13 10 10 17 7 4 5 8 12 13 14 18 16 17 16 16 17 22 20 19 14 20 24 18 15 15 13 14 6 4 7 7 7 8 14 11 11 11 12 12 11
4 8 6 9 12 13 11 17 7 8 7 7 7 5 12 15 18 15 15 10 17 17 20 21 12 16 13 15 15 11 14 16 16 6 7 11 11 20 13 12 12 13 14 14 13
7 6 7 14 12 18 13 18 4 8 10 7 6 12 11 8 17 18 14 13 15 18 20 19 7 11 16 14 20 18 14 18 12 14 10 9 10 11 14 10 12 15 15 14 13
7 6 6 14 8 12 18 10 7 11 8 7 9 9 10 7 9 13 8 11 13 18 17 15 10 12 15 17 11 10 20 14 15 14 7 8 2 10 13 14 14 14 15 13 12
7 6 9 15 20 16 11 12 15 14 14 10 10 6 9 13 7 5 12 10 9 18 14 18 17 16 12 15 15 19 19 17 14 11 7 6 7 23 10 13 16 15 14 14 12
9 6 4 7 13 14 14 7 12 11 13 11 12 14 12 11 14 12 9 12 11 9 9 16 18 19 14 4 8 6 17 13 11 14 9 16 28 31 16 15 17 17 16 15 14
8 6 5 16 3 9 7 11 13 12 12 13 14 15 15 13 13 12 14 10 15 15 14 17 18 17 20 12 11 10 10 12 11 12 11 8 12 15 18 17 17 17 16 15 15
6 8 7 9 13 10 11 13 9 7 12 16 10 14 7 13 14 14 16 13 13 13 17 20 16 16 19 17 10 15 15 13 11 8 6 9 9 7 13 15 17 17 16 16 15
Wind_Direction
287 269 259 256 261 262 263 269 281 292 302 309 313 312 308 301 286 296 282 267 237 260 290 299 285 288 266 217 253 245 302 58 66 70 121 163 117 67 90 126 62 72 133 147 152
314 285 269 261 259 262 266 269 274 283 294 304 311 312 312 309 288 273 255 253 228 238 266 281 308 305 239 167 272 286 322 70 26 59 97 122 114 141 117 124 103 112 124 148 156
328 309 281 268 263 260 262 266 270 278 287 297 307 312 314 314 291 227 224 218 215 248 257 281 295 267 241 228 136 12 69 75 61 50 86 103 118 177 141 111 133 142 148 158 162
329 317 301 281 269 265 262 265 268 275 286 295 300 306 308 289 238 136 209 200 210 237 262 269 270 253 206 187 139 116 69 61 87 97 111 90 130 129 103 114 113 144 156 163 168
326 320 308 298 284 273 265 262 265 272 280 287 295 303 309 244 246 232 190 223 231 245 253 283 279 265 259 118 161 40 102 96 109 118 99 123 69 136 104 128 123 143 154 166 174
324 320 314 302 295 284 271 263 261 267 274 280 285 290 280 258 219 213 226 242 217 240 252 259 334 321 304 231 118 108 102 137 157 127 130 108 123 151 124 147 134 148 157 168 179
321 316 314 309 302 293 279 266 259 261 268 274 279 285 267 239 229 221 233 229 228 247 270 280 296 277 272 206 154 145 174 169 150 161 93 34 208 95 137 144 149 161 168 167 176
317 315 314 310 305 299 285 265 253 255 260 268 276 284 268 268 235 232 227 240 242 245 249 275 278 268 269 182 216 222 231 51 152 169 121 121 131 134 150 157 165 169 170 170 176
315 315 312 311 306 299 285 262 254 254 259 260 287 245 265 234 231 212 218 225 221 229 237 259 269 253 204 233 236 160 40 272 149 155 132 187 115 141 161 168 170 176 175 183 185
314 311 310 308 305 300 282 257 253 255 247 250 246 256 235 228 193 205 210 211 222 221 222 233 237 233 229 264 130 269 174 273 128 164 179 234 127 150 174 177 174 179 178 190 194
315 309 307 305 304 298 251 271 244 229 214 224 256 222 155 207 222 220 202 205 218 230 222 208 239 232 51 72 222 223 256 193 178 108 240 231 238 150 179 192 178 183 181 189 200
315 308 306 302 303 287 221 222 346 337 280 228 237 229 226 228 223 212 196 204 207 218 223 224 239 322 178 208 278 242 257 28 2 95 253 264 242 166 169 195 184 193 188 195 200
318 308 304 302 304 269 215 236 266 314 260 224 218 227 221 217 233 200 199 208 207 216 229 227 215 169 216 236 248 242 113 109 249 242 225 312 346 315 176 185 195 189 198 202 199
320 308 303 310 343 250 244 232 242 288 267 169 200 227 205 204 225 228 201 213 228 224 231 234 174 243 219 256 265 37 309 283 253 263 122 273 166 271 191 177 189 199 198 205 200
320 306 292 261 229 217 198 191 252 199 257 144 135 146 193 201 120 199 209 216 226 222 233 228 186 232 221 242 312 151 216 286 301 276 155 236 114 199 202 175 177 202 203 208 203
318 301 284 272 239 205 221 252 168 231 244 153 153 189 193 204 221 166 199 220 222 234 230 253 227 201 244 233 192 317 265 246 249 244 255 225 219 79 256 37 113 196 202 204 203
313 291 261 226 175 207 211 191 220 244 97 155 185 172 195 191 214 175 195 201 214 222 221 220 238 268 204 220 258 244 256 260 287 244 344 210 277 112 163 97 103 145 185 207 199
311 284 244 215 221 200 199 223 253 219 188 83 216 184 199 185 212 194 197 200 217 219 222 218 213 223 211 246 234 253 269 280 173 321 201 288 251 123 123 114 114 129 156 203 214
314 261 226 230 205 191 213 226 225 240 32 243 173 207 201 185 210 202 209 213 205 223 227 224 228 212 220 199 244 227 252 252 174 246 253 178 328 226 123 123 125 117 120 123 163
234 225 184 194 186 186 233 252 307 325 338 237 226 210 191 198 202 199 197 221 225 209 238 239 237 223 206 222 231 245 244 292 240 242 313 17 354 291 174 135 129 128 119 114 117
193 214 183 180 175 213 230 235 226 192 229 262 257 204 253 190 201 201 228 210 224 194 227 251 245 204 191 206 217 211 236 258 222 193 254 251 215 239 150 158 144 131 132 131 130
266 239 159 165 197 219 231 253 76 259 200 258 291 295 256 195 196 236 208 234 193 220 207 233 226 229 201 207 220 238 253 238 243 228 265 309 116 82 85 126 137 124 131 130 132
257 124 176 179 228 221 226 260 239 246 227 232 236 241 243 249 208 229 225 214 187 227 199 219 245 229 191 200 206 216 232 252 268 278 230 182 68 131 139 129 136 135 134 136 138
270 195 159 210 253 289 246 211 233 216 261 263 264 261 224 250 218 225 230 177 182 210 223 216 238 252 191 204 202 202 233 269 252 267 280 68 359 310 147 145 145 146 147 147 151
237 296 55 191 226 235 264 249 229 232 203 221 235 247 234 231 222 214 238 198 185 204 210 225 239 251 263 68 216 185 261 226 237 281 295 158 220 215 164 163 155 155 154 155 155
302 336 337 276 279 230 194 244 250 246 243 206 235 216 235 254 259 211 215 221 194 200 212 219 242 240 255 217 217 249 253 244 223 251 287 320 289 95 124 144 154 160 160 160 157
326 288 281 279 255 213 231 211 260 257 267 245 239 248 238 247 275 309 309 278 209 195 205 226 228 232 242 232 228 228 249 246 238 238 275 293 67 93 129 151 166 165 166 163 159
Height
1512 1512 1512 1512 1512 1512 1512 1511 1511 1511 1511 1510 1509 1508 1505 1503 1502 1502 1500 1500 1499 1498 1497 1498 1496 1494 1492 1487 1486 1485 1485 1487 1484 1486 1491 1492 1493 1499 1501 1504 1506 1508 1509 1517 1524
1512 1511 1511 1511 1511 1511 1511 1511 1510 1510 1510 1509 1509 1507 1505 1502 1500 1500 1498 1498 1498 1498 1497 1496 1492 1491 1483 1483 1483 1475 1485 1483 1479 1479 1488 1491 1492 1497 1502 1503 1508 1510 1513 1519 1525
1511 1510 1510 1509 1510 1509 1510 1510 1510 1509 1509 1509 1508 1506 1504 1502 1500 1495 1496 1496 1497 1497 1497 1496 1493 1489 1479 1479 1480 1478 1481 1478 1483 1487 1489 1493 1495 1494 1497 1506 1501 1512 1516 1520 1525
1511 1510 1509 1508 1508 1508 1508 1508 1508 1508 1508 1507 1507 1506 1504 1502 1496 1493 1494 1496 1496 1496 1497 1494 1488 1481 1474 1474 1478 1478 1482 1480 1487 1491 1492 1493 1497 1494 1500 1502 1502 1512 1517 1521 1525
1510 1509 1508 1507 1507 1506 1506 1506 1507 1506 1506 1506 1506 1505 1503 1501 1496 1494 1495 1496 1495 1496 1495 1491 1485 1480 1474 1473 1474 1475 1481 1484 1487 1489 1491 1495 1497 1497 1502 1506 1506 1512 1517 1521 1525
1510 1509 1507 1506 1505 1505 1504 1504 1505 1505 1505 1505 1505 1504 1504 1500 1494 1495 1495 1495 1496 1496 1493 1491 1486 1485 1476 1473 1479 1475 1478 1482 1483 1487 1492 1494 1499 1494 1502 1504 1508 1513 1516 1520 1524
1509 1508 1506 1505 1504 1503 1502 1503 1503 1503 1503 1504 1504 1503 1503 1496 1494 1495 1495 1495 1495 1495 1492 1490 1489 1486 1477 1473 1474 1476 1478 1481 1483 1483 1490 1498 1496 1498 1502 1504 1507 1511 1514 1518 1522
1508 1507 1505 1504 1502 1501 1500 1501 1501 1502 1502 1502 1503 1502 1498 1492 1493 1493 1493 1493 1493 1493 1493 1492 1490 1486 1480 1483 1475 1475 1470 1525 1485 1485 1498 1517 1502 1498 1502 1503 1506 1508 1513 1517 1521
1507 1506 1504 1503 1501 1500 1499 1499 1499 1500 1500 1501 1503 1502 1493 1489 1490 1490 1491 1491 1491 1492 1492 1491 1489 1481 1476 1473 1476 1470 1540 1510 1481 1479 1480 1489 1481 1494 1499 1501 1502 1506 1510 1516 1519
1505 1504 1503 1501 1500 1498 1498 1498 1498 1498 1499 1500 1500 1503 1490 1486 1486 1488 1489 1490 1490 1490 1491 1489 1484 1475 1469 1473 1505 1492 1517 1481 1476 1479 1477 1475 1477 1488 1495 1495 1498 1503 1507 1512 1514
1504 1503 1501 1500 1498 1497 1498 1498 1500 1499 1496 1488 1485 1484 1485 1486 1488 1487 1488 1490 1489 1487 1484 1482 1477 1473 1483 1491 1484 1486 1483 1471 1465 1465 1474 1473 1472 1475 1488 1492 1494 1499 1503 1507 1509
1502 1501 1499 1498 1497 1496 1496 1497 1494 1495 1487 1485 1485 1485 1485 1486 1483 1482 1486 1487 1486 1484 1478 1475 1477 1465 1474 1471 1471 1466 1468 1476 1473 1467 1473 1469 1469 1467 1478 1486 1489 1495 1499 1501 1504
1500 1498 1498 1496 1495 1494 1494 1496 1494 1494 1487 1473 1478 1480 1482 1485 1481 1478 1483 1481 1478 1479 1472 1475 1467 1470 1470 1471 1473 1465 1473 1499 1500 1469 1467 1472 1481 1478 1470 1479 1485 1491 1494 1495 1499
1498 1496 1496 1495 1497 1495 1494 1494 1494 1495 1482 1466 1473 1474 1477 1480 1478 1475 1476 1479 1474 1474 1469 1467 1466 1474 1474 1474 1467 1482 1473 1471 1474 1476 1519 1497 1546 1504 1466 1472 1477 1483 1488 1490 1494
1496 1494 1493 1494 1493 1494 1495 1494 1494 1495 1486 1461 1465 1470 1471 1474 1463 1471 1474 1475 1472 1470 1468 1469 1466 1476 1473 1472 1466 1491 1475 1471 1467 1470 1484 1489 1496 1474 1460 1464 1468 1475 1479 1484 1489
1493 1491 1491 1491 1490 1491 1491 1493 1494 1490 1478 1457 1459 1464 1465 1468 1464 1463 1472 1474 1473 1468 1466 1461 1460 1465 1466 1463 1470 1466 1470 1467 1464 1465 1483 1479 1479 1476 1500 1462 1464 1466 1472 1477 1484
1490 1487 1487 1487 1491 1490 1492 1494 1486 1475 1447 1453 1455 1455 1459 1460 1460 1463 1468 1471 1471 1479 1474 1468 1466 1467 1464 1470 1468 1468 1471 1484 1499 1484 1501 1463 1468 1479 1462 1462 1464 1469 1470 1473 1478
1485 1483 1483 1484 1486 1487 1492 1488 1483 1448 1446 1444 1447 1449 1455 1452 1454 1457 1461 1465 1463 1461 1463 1474 1481 1466 1460 1465 1469 1464 1464 1481 1518 1506 1535 1477 1474 1463 1456 1463 1467 1471 1473 1476 1476
1482 1481 1481 1482 1483 1486 1489 1478 1460 1446 1443 1449 1448 1452 1451 1446 1450 1453 1455 1457 1453 1456 1467 1464 1467 1448 1454 1457 1462 1472 1475 1451 1500 1512 1496 1481 1470 1453 1458 1462 1468 1472 1477 1479 1479
1481 1484 1483 1481 1482 1487 1483 1470 1449 1452 1455 1453 1451 1445 1451 1447 1453 1451 1452 1448 1449 1449 1450 1448 1463 1445 1447 1454 1454 1460 1466 1477 1459 1498 1504 1478 1488 1479 1463 1466 1470 1473 1479 1484 1488
1480 1479 1480 1481 1485 1486 1473 1458 1451 1457 1459 1452 1444 1444 1438 1441 1446 1445 1449 1445 1446 1447 1452 1445 1448 1448 1447 1455 1461 1464 1467 1460 1468 1475 1502 1498 1484 1475 1458 1463 1468 1473 1480 1486 1490
1480 1471 1477 1480 1483 1473 1464 1453 1457 1453 1457 1456 1452 1444 1439 1433 1442 1445 1446 1441 1444 1445 1452 1446 1444 1455 1453 1447 1449 1448 1454 1451 1463 1471 1458 1458 1476 1450 1455 1465 1472 1476 1482 1488 1492
1476 1470 1478 1480 1469 1458 1457 1452 1456 1454 1452 1452 1450 1446 1441 1438 1448 1440 1438 1437 1443 1445 1448 1448 1452 1458 1454 1449 1445 1452 1450 1444 1441 1440 1458 1485 1473 1447 1457 1467 1475 1482 1486 1491 1495
1479 1464 1474 1477 1468 1458 1448 1453 1454 1455 1454 1450 1449 1446 1446 1443 1438 1440 1438 1437 1442 1445 1446 1448 1444 1444 1455 1448 1439 1454 1448 1444 1441 1453 1447 1492 1496 1474 1463 1470 1476 1483 1487 1491 1495
1475 1459 1459 1459 1460 1457 1452 1448 1449 1449 1451 1450 1452 1450 1445 1447 1442 1443 1437 1437 1444 1445 1447 1448 1454 1442 1434 1437 1440 1450 1443 1441 1446 1443 1457 1473 1483 1476 1461 1468 1474 1481 1486 1490 1494
1476 1469 1464 1456 1453 1452 1454 1455 1452 1447 1445 1447 1451 1441 1443 1442 1434 1438 1435 1434 1439 1443 1448 1445 1454 1445 1446 1436 1440 1447 1440 1439 1439 1441 1442 1446 1448 1441 1455 1467 1475 1481 1484 1489 1493
1480 1477 1475 1457 1451 1451 1447 1447 1447 1447 1446 1445 1441 1442 1441 1440 1437 1434 1431 1427 1429 1432 1441 1444 1445 1451 1457 1439 1441 1458 1442 1436 1436 1438 1440 1452 1450 1451 1457 1466 1474 1479 1484 1488 1492